Location: *
(51.0333°S, 178.4667°E)
Time: 12:08:44
(UTC+00:00)

Helios 1B rocket - Pass Details

Date: 15 November 2019
Orbit: 576 x 583 km, 98.1° (Epoch: 06 December)

Event Time Altitude Azimuth Distance (km) Brightness Sun altitude
Exits shadow 10:27:32 39° 43° (NE) 895 2.9 -18.1°
Maximum altitude 10:28:55 64° 108° (ESE) 657 2.6 -18.2°
Drops below altitude 10° 10:33:04 10° 189° (S) 1,932 6.3 -18.4°
Sets 10:35:16 0° 192° (SSW) 2,839 7.6 -18.6°
